Weather in Porvoo

Finland     60°23′08″N   25°39′38″E
temp.,
°C
wind,
m/s
gust,
m/s
humid.,
%
clouds,
%
prec.,
mm/h
press.,
hPa
HPBL,
m
19 april, mon
mon1900:00+6ene226435 0.0 103027
03:00+4ene247313 0.0 103071
06:00+3ne278749 0.0 1030134
09:00+8ene366910 0.0 1030403
12:00+12ese34517 0.0 10291140
15:00+13se34423 0.0 10291288
18:00+11se34421 0.0 1028623
21:00+6ese26560 0.0 1028129
20 april, tue
tue2000:00+4ene22663 0.0 102747
03:00+3ne226848 0.0 102635
06:00+2ne247698 0.0 102583
09:00+6e35605 0.0 1024397
12:00+9ese574269 0.0 1023950
15:00+10ese463924 0.0 10211318
18:00+9ese47390 0.0 10191269
21:00+5ese22555 0.0 101732
21 april, wed
wed2100:00+3ene28615 0.0 1015161
03:00+2ene237621 0.0 101366
06:00+1ne2478100 0.0 101175
09:00+6e246796 0.0 1010389
12:00+9ese2253100 0.0 10071205
15:00+9e2353100 0.0 10051250
18:00+5ese1187100 0.1 1004691
21:00+4s0193100 0.4 1003619
22 april, thu
thu2200:00+4sw1288100 0.1 1002163
03:00+3sw1391100 0.1 1002114
06:00+2sw1295100 0.0 100346
09:00+5ssw127289 0.0 1003346
12:00+10ssw234966 0.0 10041247
15:00+10ssw455871 0.0 10051027
18:00+9sw465624 0.1 10071081
21:00+6sw257128 0.1 1008204
23 april, fri
fri2300:00+3sw248119 0.1 100886
03:00+1sw238783 0.1 100770
06:00+1ssw259792 0.0 1006184
09:00+3sw3579100 0.0 1006666
12:00+5ssw356576 0.0 10061086
15:00+7s455586 0.1 10051531
18:00+5s4572100 0.1 1006797
21:00+2sse248756 0.1 1006232